ASA141 KPHX-PANC

Flight info

Callsign ASA141
Flight time N/A
Altitude 32000
Route QUAKY1 GCN WINEN NEERO IMB/N0454F340 ARRIE FOCHE PRYCE BKA/N0452F360 LAIRE JOH WITTI5
Aircraft B739/M-SDE2E3FGHIRWXY/LB1

Departure

Time N/A
Airport Phoenix Sky Harbor International Airport (KPHX)

Arrival

Time 2026-05-06 02:02
Airport Ted Stevens Anchorage International Airport (PANC)
Time Latitude Longitude Altitude Speed Heading
2026-05-06 01:02 58.71099 -140.26514 32776 ft 428 kts 297°
2026-05-06 01:03 58.72785 -140.31255 32940 ft 429 kts 297°
2026-05-06 01:03 58.74459 -140.35973 33158 ft 428 kts 297°
2026-05-06 01:03 58.76153 -140.40759 33319 ft 430 kts 297°
2026-05-06 01:03 58.77820 -140.45483 33507 ft 430 kts 297°
2026-05-06 01:04 58.79485 -140.50211 33724 ft 430 kts 297°
2026-05-06 01:04 58.81143 -140.54971 33922 ft 429 kts 297°
2026-05-06 01:04 58.82734 -140.59805 33970 ft 429 kts 295°
2026-05-06 01:05 58.85792 -140.69650 33999 ft 426 kts 293°
2026-05-06 01:05 58.88790 -140.79457 34001 ft 424 kts 293°
2026-05-06 01:06 58.91788 -140.89238 33989 ft 424 kts 294°
2026-05-06 01:06 58.94785 -140.98991 33971 ft 423 kts 294°
2026-05-06 01:07 58.97788 -141.08780 33966 ft 425 kts 294°
2026-05-06 01:07 59.00784 -141.18564 33961 ft 425 kts 294°
2026-05-06 01:08 59.03786 -141.28416 33956 ft 427 kts 294°
2026-05-06 01:08 59.06782 -141.38283 33969 ft 426 kts 294°
2026-05-06 01:09 59.09767 -141.48149 33953 ft 425 kts 294°
2026-05-06 01:09 59.12742 -141.58037 33964 ft 426 kts 294°
2026-05-06 01:10 59.15712 -141.67943 33958 ft 425 kts 293°
2026-05-06 01:10 59.18686 -141.77904 33965 ft 425 kts 293°
2026-05-06 01:11 59.21639 -141.87842 33956 ft 426 kts 293°
2026-05-06 01:11 59.24581 -141.97783 33963 ft 425 kts 293°
2026-05-06 01:12 59.27517 -142.07747 33968 ft 425 kts 293°
2026-05-06 01:12 59.30454 -142.17755 33947 ft 425 kts 294°
2026-05-06 01:13 59.33380 -142.27773 33952 ft 427 kts 294°
2026-05-06 01:13 59.36302 -142.37819 33950 ft 427 kts 294°
2026-05-06 01:14 59.40696 -142.53000 33951 ft 427 kts 294°
2026-05-06 01:14 59.43602 -142.63094 33936 ft 427 kts 294°
2026-05-06 01:15 59.46497 -142.73210 33933 ft 427 kts 293°
2026-05-06 01:15 59.49386 -142.83340 33932 ft 427 kts 293°
2026-05-06 01:16 59.52288 -142.93564 33929 ft 429 kts 293°
2026-05-06 01:16 59.55174 -143.03770 33929 ft 428 kts 293°
2026-05-06 01:17 59.58050 -143.13988 33935 ft 428 kts 294°
2026-05-06 01:17 59.60914 -143.24202 33930 ft 427 kts 294°
2026-05-06 01:18 59.63765 -143.34428 33932 ft 428 kts 294°
2026-05-06 01:18 59.66618 -143.44710 33931 ft 428 kts 294°
2026-05-06 01:19 59.69472 -143.55035 33929 ft 430 kts 294°
2026-05-06 01:19 59.72321 -143.65393 33927 ft 429 kts 293°
2026-05-06 01:20 59.75143 -143.75691 33925 ft 428 kts 293°
2026-05-06 01:20 59.77971 -143.86064 33930 ft 429 kts 293°
2026-05-06 01:21 59.80800 -143.96486 33923 ft 429 kts 293°
2026-05-06 01:21 59.83609 -144.06882 33913 ft 429 kts 293°
2026-05-06 01:22 59.86402 -144.17268 33908 ft 428 kts 293°
2026-05-06 01:22 59.89193 -144.27689 33900 ft 428 kts 294°
2026-05-06 01:23 59.91963 -144.38088 33899 ft 430 kts 294°
2026-05-06 01:23 59.94762 -144.48644 33903 ft 431 kts 294°
2026-05-06 01:24 59.97537 -144.59154 33895 ft 431 kts 294°
2026-05-06 01:24 60.00328 -144.69777 33891 ft 431 kts 293°
2026-05-06 01:25 60.03087 -144.80324 33893 ft 431 kts 293°
2026-05-06 01:25 60.05862 -144.90985 33891 ft 432 kts 293°
2026-05-06 01:26 60.08605 -145.01572 33887 ft 432 kts 293°
2026-05-06 01:26 60.11348 -145.12215 33883 ft 431 kts 293°
2026-05-06 01:27 60.14084 -145.22876 33879 ft 431 kts 293°
2026-05-06 01:27 60.16802 -145.33519 33877 ft 430 kts 293°
2026-05-06 01:28 60.19527 -145.44241 33880 ft 431 kts 293°
2026-05-06 01:28 60.22228 -145.54919 33875 ft 431 kts 294°
2026-05-06 01:29 60.24923 -145.65625 33876 ft 432 kts 292°
2026-05-06 01:29 60.27614 -145.76369 33871 ft 431 kts 292°
2026-05-06 01:30 60.30293 -145.87111 33872 ft 431 kts 292°
2026-05-06 01:30 60.32957 -145.97845 33866 ft 430 kts 293°
2026-05-06 01:31 60.35612 -146.08604 33872 ft 431 kts 293°
2026-05-06 01:31 60.38284 -146.19481 33865 ft 431 kts 293°
2026-05-06 01:32 60.40926 -146.30289 33858 ft 431 kts 293°
2026-05-06 01:32 60.43555 -146.41097 33868 ft 431 kts 293°
2026-05-06 01:33 60.46177 -146.51930 33872 ft 431 kts 293°
2026-05-06 01:33 60.49086 -146.62500 33858 ft 433 kts 300°
2026-05-06 01:34 60.52580 -146.72485 33870 ft 435 kts 303°
2026-05-06 01:34 60.56218 -146.82262 33871 ft 437 kts 303°
2026-05-06 01:35 60.59879 -146.92105 33878 ft 436 kts 303°
2026-05-06 01:35 60.63497 -147.01942 33884 ft 435 kts 303°
2026-05-06 01:36 60.67048 -147.11783 33879 ft 435 kts 302°
2026-05-06 01:36 60.68788 -147.16708 33886 ft 424 kts 302°
2026-05-06 01:36 60.70480 -147.21518 33816 ft 410 kts 302°
2026-05-06 01:37 60.72113 -147.26178 33567 ft 403 kts 302°
2026-05-06 01:37 60.73730 -147.30812 33200 ft 401 kts 302°
2026-05-06 01:37 60.75339 -147.35435 32759 ft 402 kts 302°
2026-05-06 01:37 60.76958 -147.40100 32279 ft 403 kts 302°
2026-05-06 01:38 60.78568 -147.44743 31795 ft 405 kts 302°
2026-05-06 01:38 60.80195 -147.49442 31308 ft 407 kts 302°
2026-05-06 01:38 60.81838 -147.54189 30825 ft 410 kts 303°
2026-05-06 01:38 60.83478 -147.58934 30304 ft 412 kts 303°
2026-05-06 01:39 60.85111 -147.63666 29740 ft 414 kts 303°
2026-05-06 01:39 60.86787 -147.68530 29190 ft 414 kts 302°
2026-05-06 01:39 60.88419 -147.73270 28658 ft 410 kts 302°
2026-05-06 01:39 60.90038 -147.77980 28127 ft 405 kts 303°
2026-05-06 01:40 60.91653 -147.82686 27611 ft 399 kts 303°
2026-05-06 01:40 60.93247 -147.87338 27077 ft 394 kts 303°
2026-05-06 01:40 60.94796 -147.91870 26573 ft 387 kts 303°
2026-05-06 01:40 60.96312 -147.96317 26111 ft 379 kts 303°
2026-05-06 01:41 60.97790 -148.00664 25662 ft 371 kts 303°
2026-05-06 01:41 60.99249 -148.04962 25201 ft 364 kts 303°
2026-05-06 01:41 61.00681 -148.09190 24746 ft 361 kts 303°
2026-05-06 01:41 61.02108 -148.13417 24254 ft 359 kts 303°
2026-05-06 01:42 61.03537 -148.17648 23774 ft 357 kts 303°
2026-05-06 01:42 61.04937 -148.21826 23303 ft 359 kts 302°
2026-05-06 01:42 61.06334 -148.26033 22834 ft 357 kts 303°
2026-05-06 01:42 61.07738 -148.30219 22369 ft 354 kts 303°
2026-05-06 01:43 61.09131 -148.34360 21919 ft 352 kts 303°
2026-05-06 01:43 61.10523 -148.38504 21473 ft 350 kts 303°
2026-05-06 01:43 61.11888 -148.42580 21043 ft 347 kts 303°
2026-05-06 01:43 61.13217 -148.46710 20612 ft 344 kts 300°
2026-05-06 01:44 61.14357 -148.50984 20181 ft 340 kts 294°
2026-05-06 01:44 61.15270 -148.55429 19752 ft 337 kts 290°
2026-05-06 01:44 61.16074 -148.59963 19308 ft 335 kts 288°
2026-05-06 01:44 61.16852 -148.64514 18848 ft 334 kts 288°
2026-05-06 01:45 61.17614 -148.69002 18427 ft 332 kts 287°
2026-05-06 01:45 61.18375 -148.73462 17973 ft 330 kts 287°
2026-05-06 01:45 61.19142 -148.77930 17550 ft 328 kts 287°
2026-05-06 01:45 61.19910 -148.82301 17300 ft 322 kts 288°
2026-05-06 01:46 61.20666 -148.86623 16943 ft 319 kts 288°
2026-05-06 01:46 61.21416 -148.90968 16542 ft 318 kts 288°
2026-05-06 01:46 61.22146 -148.95219 16139 ft 317 kts 288°
2026-05-06 01:46 61.22887 -148.99539 15710 ft 317 kts 288°
2026-05-06 01:47 61.23618 -149.03792 15324 ft 315 kts 288°
2026-05-06 01:47 61.24271 -149.08087 14970 ft 311 kts 282°
2026-05-06 01:47 61.24701 -149.12430 14932 ft 298 kts 277°
2026-05-06 01:47 61.24974 -149.16644 14920 ft 296 kts 275°
2026-05-06 01:48 61.25195 -149.20895 14865 ft 295 kts 274°
2026-05-06 01:48 61.25415 -149.25050 14499 ft 292 kts 275°
2026-05-06 01:48 61.25655 -149.29216 14141 ft 291 kts 275°
2026-05-06 01:48 61.25901 -149.33417 13758 ft 291 kts 275°
2026-05-06 01:49 61.26148 -149.37561 13381 ft 291 kts 275°
2026-05-06 01:49 61.26397 -149.41699 13003 ft 291 kts 276°
2026-05-06 01:49 61.26648 -149.45850 12618 ft 290 kts 276°
2026-05-06 01:49 61.26898 -149.50000 12242 ft 290 kts 276°
2026-05-06 01:50 61.27139 -149.54103 11872 ft 290 kts 276°
2026-05-06 01:50 61.27380 -149.58266 11502 ft 290 kts 275°
2026-05-06 01:50 61.27615 -149.62396 11127 ft 289 kts 275°
2026-05-06 01:50 61.27850 -149.66562 10749 ft 289 kts 274°
2026-05-06 01:51 61.28141 -149.70651 10383 ft 289 kts 280°
2026-05-06 01:51 61.28843 -149.74583 10009 ft 291 kts 296°
2026-05-06 01:51 61.29872 -149.78119 9785 ft 286 kts 301°
2026-05-06 01:51 61.30980 -149.81590 9389 ft 288 kts 302°
2026-05-06 01:52 61.32067 -149.85060 8919 ft 291 kts 301°
2026-05-06 01:52 61.33136 -149.88597 8482 ft 290 kts 301°
2026-05-06 01:52 61.34197 -149.92145 8045 ft 287 kts 303°
2026-05-06 01:52 61.35441 -149.95340 7610 ft 284 kts 318°
2026-05-06 01:53 61.37137 -149.97356 7179 ft 281 kts 342°
2026-05-06 01:53 61.39000 -149.98369 6758 ft 277 kts 348°
2026-05-06 01:53 61.40832 -149.99275 6337 ft 271 kts 346°
2026-05-06 01:53 61.42622 -150.00296 5910 ft 266 kts 345°
2026-05-06 01:54 61.44382 -150.01379 5504 ft 260 kts 344°
2026-05-06 01:54 61.46062 -150.02443 5379 ft 244 kts 344°
2026-05-06 01:54 61.47618 -150.03438 5379 ft 227 kts 344°
2026-05-06 01:54 61.49103 -150.04431 5014 ft 227 kts 338°
2026-05-06 01:55 61.50344 -150.06375 4629 ft 225 kts 307°
2026-05-06 01:55 61.50893 -150.09401 4159 ft 226 kts 273°
2026-05-06 01:55 61.50557 -150.12549 3733 ft 225 kts 239°
2026-05-06 01:55 61.49456 -150.14772 3313 ft 223 kts 206°
2026-05-06 01:56 61.47993 -150.15770 3016 ft 219 kts 191°
2026-05-06 01:56 61.46493 -150.16007 2983 ft 218 kts 175°
2026-05-06 01:56 61.45021 -150.15530 2980 ft 211 kts 166°
2026-05-06 01:56 61.43586 -150.14780 2987 ft 215 kts 163°
2026-05-06 01:57 61.42139 -150.13956 2979 ft 213 kts 163°
2026-05-06 01:57 61.40761 -150.13170 2985 ft 207 kts 163°
2026-05-06 01:57 61.39359 -150.12373 2980 ft 208 kts 163°
2026-05-06 01:57 61.37962 -150.11583 2978 ft 206 kts 163°
2026-05-06 01:58 61.36650 -150.10843 2971 ft 187 kts 163°
2026-05-06 01:58 61.35420 -150.10147 2982 ft 179 kts 163°
2026-05-06 01:58 61.34236 -150.09476 2979 ft 175 kts 163°
2026-05-06 01:58 61.33057 -150.08809 2979 ft 176 kts 163°
2026-05-06 01:59 61.31871 -150.08139 2825 ft 177 kts 163°
2026-05-06 01:59 61.30702 -150.07480 2554 ft 171 kts 162°
2026-05-06 01:59 61.29559 -150.06836 2303 ft 171 kts 162°
2026-05-06 01:59 61.28413 -150.06189 2050 ft 172 kts 162°
2026-05-06 02:00 61.27301 -150.05568 1815 ft 159 kts 162°
2026-05-06 02:00 61.26292 -150.05002 1580 ft 146 kts 162°
2026-05-06 02:00 61.25329 -150.04460 1374 ft 142 kts 161°
2026-05-06 02:00 61.24374 -150.03925 1165 ft 142 kts 162°
2026-05-06 02:01 61.23424 -150.03389 956 ft 142 kts 161°
2026-05-06 02:01 61.22504 -150.02881 743 ft 137 kts 162°
2026-05-06 02:01 61.21599 -150.02376 571 ft 135 kts 163°
2026-05-06 02:01 61.20685 -150.01862 395 ft 134 kts 162°
2026-05-06 02:02 61.19782 -150.01350 180 ft 136 kts 163°
2026-05-06 02:02 61.18984 -150.00900 158 ft 93 kts 164°
2026-05-06 02:02 61.18514 -150.00636 157 ft 57 kts 163°
2026-05-06 02:02 61.18154 -150.00438 157 ft 48 kts 164°
2026-05-06 02:03 61.17894 -150.00227 157 ft 34 kts 137°
2026-05-06 02:03 61.17777 -149.99959 157 ft 21 kts 131°
2026-05-06 02:03 61.17681 -149.99773 157 ft 17 kts 128°
2026-05-06 02:03 61.17687 -149.99561 157 ft 14 kts 71°
2026-05-06 02:04 61.17719 -149.99367 157 ft 13 kts 70°
2026-05-06 02:04 61.17744 -149.99191 157 ft 12 kts 93°
2026-05-06 02:04 61.17688 -149.99104 157 ft 10 kts 162°
2026-05-06 02:04 61.17622 -149.99056 157 ft 11 kts 160°
2026-05-06 02:05 61.17523 -149.98979 157 ft 18 kts 160°
2026-05-06 02:05 61.17406 -149.98889 157 ft 17 kts 160°
2026-05-06 02:05 61.17297 -149.98808 157 ft 15 kts 161°
2026-05-06 02:05 61.17202 -149.98740 157 ft 13 kts 159°
2026-05-06 02:06 61.17197 -149.98614 157 ft 9 kts 49°
2026-05-06 02:06 61.17228 -149.98538 157 ft 2 kts 51°
2026-05-06 02:06 61.17231 -149.98529 157 ft 0 kts 51°